Flag for Sweden Weather past 2 weeks in Västerås, Sweden

Now
34 °F

Clear.


Feels Like: 30 °F
Forecast: 35 / 46 °F
Wind: 5 mph from South

Location: Vasteras / Hasslo

Current Time: Mar 6, 2015 at 10:09:54 PM

Latest Report: Mar 6, 2015 at 9:20 PM


Visibility: 10 mi

Pressure: 30.18 "Hg

Humidity: 87%

Dew point: 30 °F

Location of VästeråsLocation

Historic Weather in Västerås — Graph

°F

Västerås temperature yesterday

Maximum temperature yesterday: 43 °F (at 2:20 PM)
Minimum temperature yesterday: 23 °F (at 5:20 AM)
Average temperature yesterday: 34 °F

Past Weeks' High & Low Weather Summary

 TemperatureHumidityPressure
High46 °F (Mar 6, 2:20 PM)100% (Feb 24, 8:20 AM)30.30 "Hg (Feb 24, 8:20 AM)
Low23 °F (Mar 5, 5:20 AM)53% (Mar 5, 2:50 PM)29.18 "Hg (Feb 21, 11:50 PM)
Average36 °F86%29.67 "Hg
* Reported Feb 19 8:20 PM — Mar 6 8:50 PM, Västerås, Weather by CustomWeather, © 2015

Note: Actual official high and low records may vary slightly from our data, if they occured in-between our weather recording intervals... More about our weather records

Advertising

Västerås weather history for previous 24 hours

 ConditionsComfort  
Time TempWeatherWind HumidityBarometerVisibility
8:50 PM
Fri, Mar 6
36 °FClear.7 mph87%30.18 "Hg10 mi
8:20 PM39 °FClear.7 mph81%30.18 "Hg10 mi
7:50 PM37 °FClear.5 mph81%30.18 "Hg10 mi
7:20 PM39 °FClear.5 mph81%30.18 "Hg10 mi
6:50 PM41 °FClear.7 mph76%30.18 "Hg10 mi
6:20 PM41 °FClear.10 mph81%30.15 "Hg10 mi
5:50 PM41 °FClear.8 mph81%30.15 "Hg10 mi
5:20 PM39 °FPassing clouds.6 mph87%30.15 "HgN/A
4:50 PM45 °FSunny.3 mph71%30.15 "Hg10 mi
4:20 PM46 °FSunny.5 mph71%30.15 "Hg10 mi
3:50 PM45 °FPassing clouds.5 mph76%30.15 "HgN/A
2:50 PM46 °FPassing clouds.6 mph71%30.12 "HgN/A
2:20 PM46 °FPassing clouds.7 mph71%30.12 "HgN/A
1:50 PM45 °FScattered clouds.6 mph71%30.12 "HgN/A
1:20 PM45 °FBroken clouds.8 mph76%30.12 "HgN/A
12:50 PM45 °FBroken clouds.6 mph81%30.09 "HgN/A
12:20 PM43 °FBroken clouds.6 mph87%30.09 "HgN/A
11:50 AM43 °FBroken clouds.5 mph87%30.09 "HgN/A
11:20 AM43 °FBroken clouds.6 mph87%30.09 "HgN/A
10:50 AM41 °FPartly sunny.5 mph93%30.09 "HgN/A
10:20 AM41 °FPartly sunny.6 mph93%30.07 "HgN/A
9:50 AM39 °FBroken clouds.5 mph100%30.07 "HgN/A
9:20 AM39 °FFog.7 mph93%30.07 "Hg2 mi
8:50 AM39 °FFog.6 mph93%30.07 "Hg2 mi
8:20 AM37 °FFog.7 mph100%30.07 "Hg3 mi
7:50 AM37 °FFog.7 mph100%30.07 "Hg6 mi
7:20 AM37 °FLight rain. Partly sunny.8 mph93%30.07 "Hg6 mi
6:50 AM37 °FLight rain. Partly sunny.9 mph93%30.07 "HgN/A
6:20 AM37 °FLight rain. Passing clouds.9 mph93%30.07 "HgN/A
5:50 AM37 °FLight rain. Passing clouds.12 mph93%30.07 "HgN/A
5:20 AM37 °FDrizzle. Low clouds.10 mph93%30.07 "HgN/A
4:50 AM37 °FLight rain. Passing clouds.10 mph93%30.09 "HgN/A
4:20 AM36 °FLow clouds.13 mph93%30.09 "HgN/A
3:50 AM36 °FLow clouds.12 mph93%30.09 "HgN/A
3:20 AM36 °FLow clouds.15 mph93%30.09 "HgN/A
2:50 AM36 °FPassing clouds.15 mph93%30.12 "HgN/A
2:20 AM36 °FPartly cloudy.13 mph93%30.12 "HgN/A
1:50 AM36 °FPartly cloudy.15 mph93%30.15 "HgN/A
1:20 AM36 °FLight rain. Passing clouds.15 mph87%30.15 "Hg6 mi
12:50 AM36 °FLight rain. Overcast.15 mph87%30.18 "HgN/A
12:20 AM37 °FLight rain. Overcast.15 mph75%30.21 "HgN/A
11:50 PM
Thu, Mar 5
37 °FChilly.14 mph65%30.21 "HgN/A
11:20 PM37 °FChilly.14 mph65%30.21 "HgN/A
10:50 PM37 °FChilly.13 mph65%30.21 "HgN/A
10:20 PM37 °FClear.13 mph65%30.21 "Hg10 mi
Weather by CustomWeather, © 2015

See weather overviewHow to use our weather pages